Location: Ertinghausen
(51.6624°N, 9.7874°E)
Time: 21:38:26
(UTC+00:00)

CZ-2C R/B - Pass Details

Date: 22 August 2024
Orbit: 703 x 904 km, 98.2° (Epoch: 07 September)

Event Time Altitude Azimuth Distance (km) Brightness Sun altitude
Rises 01:06:27 0° 17° (NNE) 3,277 7.7 -22.9°
Reaches altitude 10° 01:08:46 10° 21° (NNE) 2,374 6.6 -22.7°
Maximum altitude 01:13:58 60° 101° (E) 945 3.5 -22.3°
Enters shadow 01:15:59 37° 164° (SSE) 1,279 3.8 -22.2°
